EDT,Max TemperatureF,Mean TemperatureF,Min TemperatureF,Max Dew PointF,MeanDew PointF,Min DewpointF,Max Humidity, Mean Humidity, Min Humidity, Max Sea Level PressureIn, Mean Sea Level PressureIn, Min Sea Level PressureIn, Max VisibilityMiles, Mean VisibilityMiles, Min VisibilityMiles, Max Wind SpeedMPH, Mean Wind SpeedMPH, Max Gust SpeedMPH,PrecipitationIn, CloudCover, Events, WindDirDegrees
2013-3-1,67,63,59,56,50,45,73,65,56,30.02,29.97,29.93,10,10,10,13,6,17,0.00,7,,1
2013-3-2,63,57,51,46,42,41,64,56,48,30.05,30.03,30.00,10,10,7,18,8,25,0.02,5,Rain,359
2013-3-3,59,52,45,47,44,37,86,67,47,30.17,30.06,29.99,10,9,5,20,10,28,0.03,6,Rain,359
2013-3-4,64,53,41,47,41,35,82,61,39,30.23,30.18,30.14,10,10,10,14,6,18,0.00,0,,15
2013-3-5,74,60,46,58,51,41,93,71,49,30.17,30.14,30.10,10,10,9,15,6,21,0.00,0,,211
2013-3-6,72,65,57,61,53,43,87,68,48,30.14,30.09,30.03,10,10,7,23,13,33,T,2,,293
2013-3-7,62,55,47,49,40,32,77,57,36,30.22,30.17,30.11,10,10,10,17,8,22,0.00,0,,348
2013-3-8,74,61,47,54,47,42,93,63,33,30.22,30.17,30.12,10,9,6,14,6,17,0.00,0,,351
2013-3-9,79,64,49,53,47,40,93,60,26,30.20,30.16,30.10,10,9,5,16,7,20,0.00,0,,61
2013-3-10,81,68,55,59,54,51,86,61,36,30.14,30.09,30.03,10,10,8,18,8,26,0.00,2,,94
2013-3-11,80,69,58,63,58,56,93,69,45,30.09,30.01,29.93,10,10,6,21,9,25,0.00,1,,130
2013-3-12,75,68,61,68,64,54,93,83,72,30.04,29.97,29.90,10,9,7,18,9,23,0.00,5,,206
2013-3-13,76,65,54,54,48,38,86,57,27,30.17,30.10,30.04,10,10,10,17,9,23,0.00,0,,344
2013-3-14,72,63,53,50,40,26,77,48,19,30.24,30.19,30.14,10,10,9,18,9,25,0.00,0,,356
2013-3-15,76,62,48,53,42,23,80,48,16,30.28,30.21,30.15,10,10,9,14,7,18,0.00,0,,13
2013-3-16,74,62,50,55,49,44,89,64,38,30.20,30.15,30.09,10,10,7,18,5,22,0.00,1,,184
2013-3-17,79,67,54,59,55,51,84,67,50,30.13,30.08,30.01,10,10,10,18,7,24,0.00,1,,140
2013-3-18,80,73,65,70,65,58,100,82,64,30.05,30.01,29.96,10,7,1,23,8,31,0.48,5,Rain-Thunderstorm,155
2013-3-19,76,70,64,66,65,64,93,81,69,30.02,29.96,29.87,10,9,8,25,7,31,T,1,,224
2013-3-20,80,70,60,65,62,56,100,74,47,30.01,29.93,29.85,10,6,0,17,5,25,0.09,4,Fog-Rain,283
2013-3-21,73,65,57,63,54,44,93,66,38,29.96,29.91,29.86,10,10,8,15,8,21,0.00,2,,333
2013-3-22,81,67,53,70,58,42,87,73,58,29.98,29.94,29.89,10,10,9,20,9,23,0.00,3,,122
2013-3-23,84,78,71,72,69,65,93,74,55,29.95,29.90,29.83,10,9,5,21,10,26,0.00,2,,170
2013-3-24,82,76,70,73,71,68,93,84,74,29.86,29.78,29.72,9,8,6,24,14,33,0.00,5,,201
2013-3-25,74,67,60,72,59,39,93,68,43,30.05,29.87,29.76,10,8,4,23,9,28,0.00,4,,318
2013-3-26,63,57,51,46,39,35,67,53,39,30.25,30.15,30.04,10,10,10,24,12,35,0.00,2,,345
2013-3-27,63,55,46,46,37,29,67,50,33,30.31,30.25,30.21,10,10,10,20,9,24,0.00,0,,346
2013-3-28,73,59,45,48,39,29,76,48,20,30.30,30.24,30.18,10,10,10,16,8,20,0.00,0,,359
2013-3-29,79,64,48,53,44,35,86,54,22,30.31,30.25,30.19,10,10,9,15,6,20,0.00,0,,28
2013-3-30,78,66,54,56,52,49,86,62,38,30.26,30.21,30.14,10,10,8,16,5,21,0.00,1,,117
2013-3-31,80,69,57,63,58,53,86,67,48,30.19,30.10,30.04,10,9,4,21,8,26,0.00,0,,157